Date String (YYYY-MM-DD hh:mm:ss) UTC,Instrument flags,Ambient pressure (hPa),Sample flow (lpm),Bypass flow (lpm),Sample temperature (°C),Ambient temperature (°C),ASC tube jacket temperature (°C),LED temperature (°C),Box temperature (°C),Sample RH (%),Span deviation,Mass concentration (μg/m³),Mass concentration (μg/m³),Mass concentration (μg/m³)
DateTimeUTC,F1_M11,P_M11,Q1_M11,Q2_M11,T1_M11,T2_M11,T3_M11,T4_M11,T5_M11,U1_M11,ZSPAN_M11,X2_M11,X0_M11,X1_M11
2023-04-11 10:00:00,,0833.2,5.00,0.00,26.5,24.7,00.0,34.9,28.0,10.7,0000.0,0003.23,0008.79,0001.65
2023-04-11 10:01:00,,0833.0,5.01,0.00,26.5,24.7,00.0,34.9,28.0,10.6,0000.0,0003.26,0008.88,0001.66
2023-04-11 10:02:00,,0832.9,5.00,0.00,26.5,24.7,00.0,34.9,28.0,10.5,0000.0,0003.26,0009.87,0001.66
2023-04-11 10:03:00,,0832.9,5.00,0.00,26.5,24.6,00.0,34.9,28.0,10.5,0000.0,0003.27,0010.24,0001.65
2023-04-11 10:04:00,,0833.0,4.99,0.00,26.5,24.6,00.0,34.9,28.0,10.5,0000.0,0003.27,0010.21,0001.65
2023-04-11 10:05:00,,0832.9,4.99,0.00,26.5,24.6,00.0,34.9,28.0,10.5,0000.0,0003.29,0010.24,0001.66
2023-04-11 10:06:00,,0832.9,5.00,0.00,26.5,24.6,00.0,34.9,28.0,10.5,0000.0,0003.34,0010.40,0001.67
2023-04-11 10:07:00,,0832.9,5.00,0.00,26.5,24.6,00.0,34.9,28.0,10.5,0000.0,0003.34,0010.23,0001.66
2023-04-11 10:08:00,,0833.0,5.01,0.00,26.4,24.6,00.0,34.9,28.0,10.9,0000.0,0003.34,0010.40,0001.64
2023-04-11 10:09:00,,0832.9,5.01,0.00,26.4,24.6,00.0,34.8,28.0,10.7,0000.0,0003.35,0010.14,0001.64
2023-04-11 10:10:00,,0833.1,5.00,0.00,26.4,24.6,00.0,34.8,27.9,10.7,0000.0,0003.29,0008.93,0001.62
2023-04-11 10:11:00,,0833.2,5.00,0.00,26.4,24.6,00.0,34.8,27.9,10.6,0000.0,0003.30,0009.05,0001.62
2023-04-11 10:12:00,,0833.5,4.99,0.00,26.4,24.6,00.0,34.8,28.0,10.6,0000.0,0003.29,0009.11,0001.62
2023-04-11 10:13:00,,0833.3,5.00,0.00,26.4,24.6,00.0,34.8,27.9,10.6,0000.0,0003.26,0009.62,0001.61
2023-04-11 10:14:00,,0833.2,5.01,0.00,26.4,24.6,00.0,34.8,27.9,10.7,0000.0,0003.23,0008.94,0001.60
2023-04-11 10:15:00,,0832.8,5.00,0.00,26.4,24.5,00.0,34.8,27.9,11.0,0000.0,0003.22,0008.88,0001.61
2023-04-11 10:16:00,,0832.8,5.00,0.00,26.4,24.5,00.0,34.8,27.9,10.6,0000.0,0003.18,0009.00,0001.60
2023-04-11 10:17:00,,0832.8,5.00,0.00,26.4,24.5,00.0,34.8,27.9,10.6,0000.0,0003.16,0009.50,0001.61
2023-04-11 10:18:00,,0832.8,5.00,0.00,26.4,24.5,00.0,34.8,27.8,10.8,0000.0,0003.18,0009.56,0001.61
2023-04-11 10:19:00,,0832.8,5.00,0.00,26.4,24.5,00.0,34.8,27.8,10.9,0000.0,0003.18,0009.42,0001.63
2023-04-11 10:20:00,,0832.8,4.99,0.00,26.4,24.5,00.0,34.7,27.9,10.8,0000.0,0003.16,0009.40,0001.63
2023-04-11 10:21:00,,0832.7,4.98,0.00,26.4,24.5,00.0,34.7,27.9,10.9,0000.0,0003.15,0009.46,0001.63
2023-04-11 10:22:00,,0832.7,5.00,0.00,26.3,24.5,00.0,34.7,27.9,10.7,0000.0,0003.15,0009.43,0001.65
2023-04-11 10:23:00,,0832.7,5.01,0.00,26.3,24.5,00.0,34.7,27.8,10.9,0000.0,0003.18,0010.19,0001.66
2023-04-11 10:24:00,,0832.9,5.00,0.00,26.3,24.5,00.0,34.7,27.8,10.7,0000.0,0003.18,0010.12,0001.68
2023-04-11 10:25:00,,0832.7,5.01,0.00,26.3,24.4,00.0,34.7,27.8,10.7,0000.0,0003.24,0010.67,0001.69
2023-04-11 10:26:00,,0832.7,5.01,0.00,26.3,24.4,00.0,34.7,27.8,10.8,0000.0,0003.28,0011.03,0001.70
2023-04-11 10:27:00,,0832.7,5.00,0.00,26.3,24.4,00.0,34.7,27.8,11.1,0000.0,0003.31,0011.44,0001.69
2023-04-11 10:28:00,,0832.7,5.01,0.00,26.3,24.4,00.0,34.7,27.8,11.2,0000.0,0003.25,0010.85,0001.68
2023-04-11 10:29:00,,0832.8,5.00,0.00,26.3,24.4,00.0,34.7,27.8,11.1,0000.0,0003.24,0011.31,0001.69
2023-04-11 10:30:00,,0832.7,5.00,0.00,26.3,24.4,00.0,34.7,27.8,11.0,0000.0,0003.22,0011.25,0001.68
2023-04-11 10:31:00,,0832.7,4.99,0.00,26.3,24.4,00.0,34.7,27.7,11.0,0000.0,0003.22,0011.19,0001.69
2023-04-11 10:32:00,,0832.6,4.99,0.00,26.2,24.4,00.0,34.6,27.8,11.2,0000.0,0003.24,0011.14,0001.71
2023-04-11 10:33:00,,0832.6,5.01,0.00,26.2,24.4,00.0,34.6,27.8,11.0,0000.0,0003.24,0011.01,0001.70
2023-04-11 10:34:00,,0832.7,5.01,0.00,26.2,24.4,00.0,34.6,27.8,11.1,0000.0,0003.19,0010.95,0001.70
2023-04-11 10:35:00,,0832.6,5.00,0.00,26.2,24.3,00.0,34.6,27.7,11.2,0000.0,0003.15,0010.16,0001.68
2023-04-11 10:36:00,,0832.6,4.99,0.00,26.2,24.3,00.0,34.6,27.7,11.0,0000.0,0003.09,0009.44,0001.66
2023-04-11 10:37:00,,0832.6,4.99,0.00,26.2,24.3,00.0,34.6,27.7,11.0,0000.0,0002.99,0009.04,0001.65
2023-04-11 10:38:00,,0832.6,5.00,0.00,26.2,24.3,00.0,34.6,27.7,11.1,0000.0,0002.91,0008.37,0001.64
2023-04-11 10:39:00,,0832.6,5.01,0.00,26.2,24.3,00.0,34.6,27.7,11.0,0000.0,0002.99,0008.26,0001.66
2023-04-11 10:40:00,,0832.6,5.00,0.00,26.2,24.3,00.0,34.6,27.7,11.1,0000.0,0003.00,0007.72,0001.64
2023-04-11 10:41:00,,0832.6,5.00,0.00,26.2,24.3,00.0,34.6,27.7,10.9,0000.0,0002.95,0007.60,0001.64
2023-04-11 10:42:00,,0832.6,5.00,0.00,26.1,24.3,00.0,34.5,27.7,10.8,0000.0,0002.88,0007.56,0001.64
2023-04-11 10:43:00,,0832.6,5.00,0.00,26.1,24.3,00.0,34.5,27.7,10.8,0000.0,0002.89,0007.67,0001.63
2023-04-11 10:44:00,,0832.6,5.00,0.00,26.1,24.3,00.0,34.5,27.7,10.9,0000.0,0002.84,0007.88,0001.61
2023-04-11 10:45:00,,0832.6,5.00,0.00,26.1,24.3,00.0,34.5,27.6,10.9,0000.0,0002.84,0007.72,0001.60
2023-04-11 10:46:00,,0832.7,4.99,0.00,26.1,24.2,00.0,34.5,27.6,10.9,0000.0,0002.89,0007.32,0001.61
2023-04-11 10:47:00,,0832.7,5.01,0.00,26.1,24.2,00.0,34.5,27.6,10.8,0000.0,0003.00,0007.65,0001.63
2023-04-11 10:48:00,,0832.7,5.00,0.00,26.1,24.2,00.0,34.5,27.6,10.7,0000.0,0003.08,0008.01,0001.62
2023-04-11 10:49:00,,0832.7,4.99,0.00,26.1,24.2,00.0,34.5,27.6,10.8,0000.0,0003.10,0008.08,0001.62
2023-04-11 10:50:00,,0832.7,5.00,0.00,26.1,24.2,00.0,34.5,27.6,10.8,0000.0,0003.05,0007.96,0001.60
2023-04-11 10:51:00,,0832.7,5.00,0.00,26.1,24.2,00.0,34.4,27.6,10.8,0000.0,0003.06,0007.99,0001.60
2023-04-11 10:52:00,,0832.7,5.00,0.00,26.0,24.2,00.0,34.4,27.5,10.8,0000.0,0003.05,0008.04,0001.59
2023-04-11 10:53:00,,0832.6,5.00,0.00,26.0,24.2,00.0,34.4,27.5,10.9,0000.0,0003.06,0008.15,0001.59
2023-04-11 10:54:00,,0832.6,5.00,0.00,26.0,24.2,00.0,34.4,27.5,10.9,0000.0,0003.01,0007.99,0001.59
2023-04-11 10:55:00,,0832.6,5.00,0.00,26.0,24.2,00.0,34.4,27.5,10.9,0000.0,0003.06,0008.04,0001.59
2023-04-11 10:56:00,,0832.6,5.01,0.00,26.0,24.2,00.0,34.4,27.5,10.9,0000.0,0003.13,0007.63,0001.60
2023-04-11 10:57:00,,0832.5,5.00,0.00,26.0,24.2,00.0,34.4,27.6,10.9,0000.0,0003.17,0007.79,0001.62
2023-04-11 10:58:00,,0832.5,5.00,0.00,26.0,24.2,00.0,34.4,27.6,11.0,0000.0,0003.12,0007.80,0001.62
2023-04-11 10:59:00,,0832.5,4.99,0.00,26.0,24.2,00.0,34.4,27.5,11.0,0000.0,0003.12,0007.57,0001.65
